Location: Unspecified
(42.2600°N, 0.0000°E)
Time: 23:19:59
(UTC+00:00)

ISS - Pass Details

Date: 26 May 2019
Orbit: 408 x 418 km, 51.6° (Epoch: 18 June)

Event Time Altitude Azimuth Distance (km) Brightness Sun altitude
Rises 22:08:40 0° 306° (NW) 2,359 1.1 -21.8°
Reaches altitude 10° 22:11:03 10° 322° (NW) 1,497 0.1 -22.0°
Maximum altitude 22:13:49 23° 17° (NNE) 943 -1.5 -22.2°
Enters shadow 22:15:04 19° 50° (NE) 1,082 -1.6 -22.3°
